CZ-6A DEB, 54990

Orbit data source: Space-Track

CZ-6A DEB, 54990 is space debris in SSO originally from a launch on Fri, 11 Nov 2022 UTC launched from the Taiyaun Space Center, China (TSC). Debris objects in space refer to the collection of defunct objects orbiting the Earth. Examples of debris include non-operational satellites, rocket bodies, and fragments generated from explosions, collisions, or faulty payload assembly.

Loading next visibility...
Identifier
54990, 2022-151UF
Orbit
SSO
Country
Flag of CNCN / PRC
Related business
Manufacturer
SAST
Mission
Spacecraft
Bus & Motor
Unknown
Mass
Unknown
Launch date (UTC)
2022-11-11 (4 years ago)
Launch vehicle
Unknown
Launch site
Taiyaun Space Center, China (TSC)
Object type
Payload
Rocket body
Debris
Shape & HBR
Unknown shape, 0.1 m
Radar Cross Section
Small (<0.1 m²)

Expand to show TLE details & history
Last TLE update: 11 hours ago

TLE from 11 hours ago
0 CZ-6A DEB
1 54990U 22151UF  26264.37774437  .00004023  00000-0  80306-3 0  9999
2 54990  98.6347 322.4692 0073667  31.9639 328.5998 14.60810689202421
Epoch: 2026-09-21T09:03Z
TLE epoch observation values (Epoch: 2026-09-21T09:03:57.113Z)
Latitude
0.00001°
Longitude
-173.77721°
Altitude
649.179 km
Speed
7.557 km/s
True Right ascension
21h 29m 52s
True Declination
0° 00' 00"
Sunlit
Object was in full shadow at epoch
Visualization orbit readout
Latitude
Unknown
Longitude
Unknown
Altitude
Unknown
Speed
Unknown
Apparent Right ascension
Unknown
Apparent Declination
Unknown
Sunlit
N/A
Visualization observer readout
Local Sidereal Time
13:11:44
Azimuth
Unknown
Elevation
Unknown
Doppler factor
Unknown
Orbital elements
Apogee altitude
739.71 km
Perigee altitude
635.606 km
Semi-major axis
7,065.795 km
Eccentricity
0.00737
Inclination
98.6347°
RAAN
322.4692°
Arg. of periapsis
31.9639°
True anomaly
328.1565°
Mean anomaly
328.5998°
Eccentric anomaly
328.3785°
Mean motion
3.65428 °/min
Orbital period
98.51 mins
BSTAR
0.00080306
Loading maneuver chart data...
Computing Atmospheric mass density...
Loading historical data...
Loading historical data...
Loading historical data...
Loading historical data...
Loading historical data...
Loading historical data...
Loading historical data...

Documentation

Showing up to 5 results
|